| time (UTC) | temp F | wind direction | speed MPH | gust MPH | rain 1hr in | rain 24hr in | rain mn in | humidity % | barometer mb |
| 20260504050550 | 44 | 0 | 0.0 | 0.0 | 0.00 | 0.00 | 0.00 | 80 | 1000.5 |
| 20260504045549 | 44 | 0 | 0.0 | 0.0 | 0.00 | 0.00 | 0.00 | 79 | 1000.7 |
| 20260504045051 | 45 | 0 | 0.0 | 0.0 | 0.00 | 0.00 | 0.00 | 78 | 1000.8 |
| 20260504044552 | 45 | 0 | 0.0 | 0.0 | 0.00 | 0.00 | 0.00 | 78 | 1000.9 |
| 20260504044050 | 45 | 0 | 0.0 | 0.0 | 0.00 | 0.00 | 0.00 | 78 | 1001.0 |
| 20260504043550 | 45 | 0 | 0.0 | 0.0 | 0.00 | 0.00 | 0.00 | 77 | 1001.0 |
| 20260504043053 | 45 | 0 | 0.0 | 0.0 | 0.00 | 0.00 | 0.00 | 77 | 1001.1 |
| 20260504042549 | 46 | 0 | 0.0 | 0.0 | 0.00 | 0.00 | 0.00 | 76 | 1001.1 |
| 20260504042050 | 46 | 0 | 0.0 | 0.0 | 0.00 | 0.00 | 0.00 | 76 | 1001.2 |
| 20260504041555 | 46 | 0 | 0.0 | 0.0 | 0.00 | 0.00 | 0.00 | 75 | 1001.2 |
| 20260504041049 | 47 | 0 | 0.0 | 0.0 | 0.00 | 0.00 | 0.00 | 74 | 1001.3 |
| 20260504040551 | 47 | 0 | 0.0 | 0.0 | 0.00 | 0.00 | 0.00 | 74 | 1001.4 |
| 20260504040053 | 47 | 0 | 0.0 | 0.0 | 0.00 | 0.00 | 0.00 | 73 | 1001.6 |
| 20260504035550 | 47 | 0 | 0.0 | 0.0 | 0.00 | 0.00 | 0.00 | 73 | 1001.7 |
| 20260504035050 | 47 | 0 | 0.0 | 0.0 | 0.00 | 0.00 | 0.00 | 72 | 1001.8 |
| 20260504034553 | 48 | 0 | 0.0 | 0.0 | 0.00 | 0.00 | 0.00 | 71 | 1001.9 |
| 20260504034054 | 48 | 0 | 0.0 | 1.0 | 0.00 | 0.00 | 0.00 | 70 | 1001.9 |
| 20260504033550 | 48 | 0 | 0.0 | 1.0 | 0.00 | 0.00 | 0.00 | 70 | 1002.1 |
| 20260504033054 | 48 | 0 | 0.0 | 1.0 | 0.00 | 0.00 | 0.00 | 69 | 1002.1 |
| 20260504032550 | 48 | 0 | 0.0 | 0.0 | 0.00 | 0.00 | 0.00 | 69 | 1002.3 |
| 20260504032050 | 48 | 0 | 0.0 | 0.0 | 0.00 | 0.00 | 0.00 | 69 | 1002.3 |
| 20260504031550 | 49 | 0 | 0.0 | 0.0 | 0.00 | 0.00 | 0.00 | 67 | 1002.4 |
| 20260504031049 | 49 | 0 | 0.0 | 0.0 | 0.00 | 0.00 | 0.00 | 67 | 1002.4 |
| 20260504030550 | 49 | 0 | 0.0 | 0.0 | 0.00 | 0.00 | 0.00 | 66 | 1002.4 |
| 20260504030053 | 49 | 0 | 0.0 | 0.0 | 0.00 | 0.00 | 0.00 | 66 | 1002.4 |
| 20260504025551 | 50 | 0 | 0.0 | 0.0 | 0.00 | 0.00 | 0.00 | 66 | 1002.5 |
| 20260504025051 | 50 | 0 | 0.0 | 0.0 | 0.00 | 0.00 | 0.00 | 65 | 1002.4 |
| 20260504024609 | 50 | 0 | 0.0 | 0.0 | 0.00 | 0.00 | 0.00 | 64 | 1002.4 |
| 20260504024049 | 51 | 0 | 0.0 | 1.0 | 0.00 | 0.00 | 0.00 | 64 | 1002.4 |
| 20260504023550 | 51 | 0 | 0.0 | 1.0 | 0.00 | 0.00 | 0.00 | 65 | 1002.4 |
| 20260504023054 | 52 | 0 | 0.0 | 1.0 | 0.00 | 0.00 | 0.00 | 62 | 1002.5 |
| 20260504022550 | 52 | 0 | 0.0 | 1.0 | 0.00 | 0.00 | 0.00 | 61 | 1002.5 |
| 20260504022052 | 53 | 0 | 0.0 | 1.0 | 0.00 | 0.00 | 0.00 | 62 | 1002.7 |
| 20260504021554 | 53 | 0 | 0.0 | 1.0 | 0.00 | 0.00 | 0.00 | 58 | 1002.7 |
| 20260504021050 | 54 | 0 | 0.0 | 1.0 | 0.00 | 0.00 | 0.00 | 58 | 1002.6 |
| 20260504020551 | 54 | 0 | 0.0 | 1.0 | 0.00 | 0.00 | 0.00 | 55 | 1002.6 |
| 20260504020051 | 55 | 0 | 0.0 | 0.0 | 0.00 | 0.00 | 0.00 | 55 | 1002.6 |
| 20260504015550 | 55 | 0 | 0.0 | 0.0 | 0.00 | 0.00 | 0.00 | 52 | 1002.8 |
| 20260504015050 | 56 | 0 | 0.0 | 0.0 | 0.00 | 0.00 | 0.00 | 52 | 1002.7 |
| 20260504014606 | 57 | 0 | 0.0 | 0.0 | 0.00 | 0.00 | 0.00 | 50 | 1002.7 |
| 20260504014049 | 58 | 0 | 0.0 | 0.0 | 0.00 | 0.00 | 0.00 | 49 | 1002.7 |
| 20260504013549 | 59 | 0 | 0.0 | 0.0 | 0.00 | 0.00 | 0.00 | 49 | 1002.8 |
| 20260504013101 | 60 | 0 | 0.0 | 0.0 | 0.00 | 0.00 | 0.00 | 46 | 1002.7 |
| 20260504012553 | 61 | 0 | 0.0 | 0.0 | 0.00 | 0.00 | 0.00 | 40 | 1002.7 |
| 20260504012051 | 62 | 0 | 0.0 | 1.0 | 0.00 | 0.00 | 0.00 | 36 | 1002.8 |
| 20260504011559 | 63 | 0 | 0.0 | 1.0 | 0.00 | 0.00 | 0.00 | 34 | 1002.8 |
| 20260504011050 | 64 | 0 | 0.0 | 0.0 | 0.00 | 0.00 | 0.00 | 32 | 1002.8 |
| 20260504010550 | 64 | 0 | 0.0 | 1.0 | 0.00 | 0.00 | 0.00 | 34 | 1002.8 |
| 20260504010105 | 65 | 0 | 0.0 | 2.0 | 0.00 | 0.00 | 0.00 | 31 | 1002.8 |
| 20260504005550 | 66 | 0 | 0.0 | 5.0 | 0.00 | 0.00 | 0.00 | 31 | 1002.7 |
| 20260504005050 | 66 | 324 | 1.0 | 5.0 | 0.00 | 0.00 | 0.00 | 30 | 1002.7 |
| 20260504004600 | 67 | 0 | 2.0 | 6.0 | 0.00 | 0.00 | 0.00 | 28 | 1002.7 |
| 20260504004050 | 67 | 287 | 2.0 | 9.0 | 0.00 | 0.00 | 0.00 | 28 | 1002.8 |
| 20260504003551 | 67 | 302 | 4.0 | 9.0 | 0.00 | 0.00 | 0.00 | 29 | 1002.9 |
| 20260504003059 | 67 | 287 | 2.0 | 7.0 | 0.00 | 0.00 | 0.00 | 28 | 1002.9 |
| 20260504002550 | 68 | 277 | 3.0 | 8.0 | 0.00 | 0.00 | 0.00 | 28 | 1002.9 |
| 20260504002050 | 68 | 0 | 4.0 | 9.0 | 0.00 | 0.00 | 0.00 | 30 | 1002.9 |
| 20260504001554 | 69 | 300 | 3.0 | 9.0 | 0.00 | 0.00 | 0.00 | 28 | 1003.0 |
| 20260504001050 | 69 | 260 | 4.0 | 12.0 | 0.00 | 0.00 | 0.00 | 28 | 1002.9 |
| 20260504000550 | 69 | 283 | 6.0 | 12.0 | 0.00 | 0.00 | 0.00 | 28 | 1002.9 |
| 20260504000128 | 69 | 336 | 4.0 | 12.0 | 0.00 | 0.00 | 0.00 | 27 | 1003.0 |
| 20260503235550 | 69 | 327 | 3.0 | 12.0 | 0.00 | 0.00 | 0.00 | 28 | 1003.0 |
| 20260503235049 | 70 | 313 | 5.0 | 12.0 | 0.00 | 0.00 | 0.00 | 27 | 1003.1 |
| 20260503234601 | 70 | 296 | 3.0 | 12.0 | 0.00 | 0.00 | 0.00 | 27 | 1003.0 |
| 20260503234052 | 70 | 327 | 4.0 | 12.0 | 0.00 | 0.00 | 0.00 | 28 | 1003.0 |
| 20260503233550 | 70 | 296 | 5.0 | 11.0 | 0.00 | 0.00 | 0.00 | 28 | 1003.0 |
| 20260503233049 | 70 | 302 | 4.0 | 10.0 | 0.00 | 0.00 | 0.00 | 27 | 1003.1 |
| 20260503232551 | 70 | 292 | 4.0 | 10.0 | 0.00 | 0.00 | 0.00 | 27 | 1003.1 |
| 20260503232050 | 69 | 287 | 5.0 | 11.0 | 0.00 | 0.00 | 0.00 | 28 | 1003.2 |
| 20260503231553 | 69 | 316 | 4.0 | 13.0 | 0.00 | 0.00 | 0.00 | 30 | 1003.2 |
| 20260503231050 | 70 | 317 | 7.0 | 13.0 | 0.00 | 0.00 | 0.00 | 27 | 1003.2 |
| 20260503230549 | 70 | 322 | 3.0 | 10.0 | 0.00 | 0.00 | 0.00 | 29 | 1003.3 |
| 20260503230050 | 69 | 296 | 5.0 | 12.0 | 0.00 | 0.00 | 0.00 | 29 | 1003.2 |
| 20260503225549 | 70 | 352 | 4.0 | 14.0 | 0.00 | 0.00 | 0.00 | 29 | 1003.2 |
| 20260503225049 | 70 | 292 | 8.0 | 14.0 | 0.00 | 0.00 | 0.00 | 28 | 1003.3 |
| 20260503224553 | 70 | 304 | 7.0 | 13.0 | 0.00 | 0.00 | 0.00 | 29 | 1003.3 |
| 20260503224053 | 70 | 300 | 7.0 | 12.0 | 0.00 | 0.00 | 0.00 | 29 | 1003.4 |
| 20260503223551 | 70 | 318 | 7.0 | 12.0 | 0.00 | 0.00 | 0.00 | 29 | 1003.4 |
| 20260503223052 | 70 | 345 | 6.0 | 14.0 | 0.00 | 0.00 | 0.00 | 30 | 1003.4 |
| 20260503222551 | 70 | 12 | 6.0 | 16.0 | 0.00 | 0.00 | 0.00 | 31 | 1003.4 |
| 20260503222051 | 70 | 347 | 5.0 | 16.0 | 0.00 | 0.00 | 0.00 | 27 | 1003.3 |
| 20260503221558 | 70 | 294 | 6.0 | 13.0 | 0.00 | 0.00 | 0.00 | 28 | 1003.4 |
| 20260503221050 | 70 | 295 | 5.0 | 14.0 | 0.00 | 0.00 | 0.00 | 27 | 1003.3 |
| 20260503220550 | 71 | 295 | 5.0 | 14.0 | 0.00 | 0.00 | 0.00 | 30 | 1003.3 |
| 20260503220056 | 71 | 313 | 7.0 | 14.0 | 0.00 | 0.00 | 0.00 | 28 | 1003.2 |
| 20260503215549 | 71 | 347 | 3.0 | 15.0 | 0.00 | 0.00 | 0.00 | 31 | 1003.2 |
| 20260503215050 | 71 | 331 | 9.0 | 15.0 | 0.00 | 0.00 | 0.00 | 30 | 1003.3 |
| 20260503214552 | 71 | 290 | 6.0 | 12.0 | 0.00 | 0.00 | 0.00 | 28 | 1003.2 |
| 20260503214051 | 70 | 333 | 4.0 | 16.0 | 0.00 | 0.00 | 0.00 | 29 | 1003.4 |
| 20260503213550 | 70 | 296 | 6.0 | 16.0 | 0.00 | 0.00 | 0.00 | 30 | 1003.4 |
| 20260503213051 | 70 | 315 | 7.0 | 14.0 | 0.00 | 0.00 | 0.00 | 33 | 1003.3 |
| 20260503212550 | 70 | 332 | 7.0 | 13.0 | 0.00 | 0.00 | 0.00 | 29 | 1003.2 |
| 20260503212050 | 70 | 327 | 6.0 | 15.0 | 0.00 | 0.00 | 0.00 | 30 | 1003.2 |
| 20260503211613 | 70 | 330 | 9.0 | 15.0 | 0.00 | 0.00 | 0.00 | 30 | 1003.4 |
| 20260503211050 | 70 | 303 | 6.0 | 14.0 | 0.00 | 0.00 | 0.00 | 34 | 1003.3 |
| 20260503210549 | 70 | 315 | 5.0 | 13.0 | 0.00 | 0.00 | 0.00 | 30 | 1003.5 |
| 20260503210050 | 70 | 292 | 5.0 | 18.0 | 0.00 | 0.00 | 0.00 | 31 | 1003.6 |
| 20260503205550 | 70 | 347 | 9.0 | 18.0 | 0.00 | 0.00 | 0.00 | 31 | 1003.6 |
| 20260503205050 | 70 | 325 | 7.0 | 17.0 | 0.00 | 0.00 | 0.00 | 30 | 1003.6 |
| 20260503204552 | 70 | 302 | 6.0 | 17.0 | 0.00 | 0.00 | 0.00 | 31 | 1003.7 |
| 20260503204051 | 70 | 315 | 9.0 | 17.0 | 0.00 | 0.00 | 0.00 | 30 | 1003.7 |
| 20260503203551 | 70 | 286 | 7.0 | 17.0 | 0.00 | 0.00 | 0.00 | 32 | 1003.8 |
| 20260503203105 | 69 | 360 | 10.0 | 17.0 | 0.00 | 0.00 | 0.00 | 29 | 1003.9 |
| 20260503202553 | 70 | 360 | 8.0 | 14.0 | 0.00 | 0.00 | 0.00 | 29 | 1003.9 |
| 20260503202054 | 69 | 302 | 6.0 | 14.0 | 0.00 | 0.00 | 0.00 | 32 | 1004.0 |
| 20260503201556 | 70 | 328 | 7.0 | 14.0 | 0.00 | 0.00 | 0.00 | 29 | 1004.0 |
| 20260503201049 | 69 | 294 | 8.0 | 18.0 | 0.00 | 0.00 | 0.00 | 29 | 1004.1 |
| 20260503200554 | 69 | 303 | 8.0 | 19.0 | 0.00 | 0.00 | 0.00 | 30 | 1004.2 |
| 20260503200053 | 69 | 300 | 11.0 | 19.0 | 0.00 | 0.00 | 0.00 | 33 | 1004.3 |
| 20260503195550 | 69 | 321 | 8.0 | 19.0 | 0.00 | 0.00 | 0.00 | 33 | 1004.2 |
| 20260503195049 | 69 | 333 | 9.0 | 18.0 | 0.00 | 0.00 | 0.00 | 35 | 1004.4 |
| 20260503194556 | 69 | 277 | 6.0 | 15.0 | 0.00 | 0.00 | 0.00 | 35 | 1004.3 |
| 20260503194055 | 69 | 302 | 6.0 | 18.0 | 0.00 | 0.00 | 0.00 | 36 | 1004.3 |
| 20260503193551 | 69 | 345 | 8.0 | 18.0 | 0.00 | 0.00 | 0.00 | 35 | 1004.4 |
| 20260503193052 | 69 | 306 | 8.0 | 16.0 | 0.00 | 0.00 | 0.00 | 35 | 1004.3 |
| 20260503192551 | 69 | 342 | 8.0 | 16.0 | 0.00 | 0.00 | 0.00 | 36 | 1004.3 |
| 20260503192050 | 69 | 352 | 7.0 | 19.0 | 0.00 | 0.00 | 0.00 | 37 | 1004.3 |
| 20260503191559 | 69 | 274 | 7.0 | 19.0 | 0.00 | 0.00 | 0.00 | 36 | 1004.4 |
| 20260503191053 | 69 | 20 | 9.0 | 14.0 | 0.00 | 0.00 | 0.00 | 33 | 1004.2 |
| 20260503190550 | 69 | 319 | 9.0 | 20.0 | 0.00 | 0.00 | 0.00 | 35 | 1004.3 |
| 20260503190053 | 68 | 318 | 7.0 | 20.0 | 0.00 | 0.00 | 0.00 | 35 | 1004.4 |
| 20260503185550 | 68 | 318 | 11.0 | 20.0 | 0.00 | 0.00 | 0.00 | 34 | 1004.4 |
| 20260503185050 | 68 | 13 | 8.0 | 19.0 | 0.00 | 0.00 | 0.00 | 36 | 1004.4 |
| 20260503184551 | 68 | 336 | 10.0 | 19.0 | 0.00 | 0.00 | 0.00 | 34 | 1004.5 |
| 20260503184053 | 68 | 300 | 8.0 | 17.0 | 0.00 | 0.00 | 0.00 | 36 | 1004.3 |
| 20260503183549 | 68 | 301 | 8.0 | 16.0 | 0.00 | 0.00 | 0.00 | 36 | 1004.4 |
| 20260503183053 | 68 | 360 | 7.0 | 16.0 | 0.00 | 0.00 | 0.00 | 38 | 1004.4 |
| 20260503182549 | 68 | 5 | 10.0 | 17.0 | 0.00 | 0.00 | 0.00 | 40 | 1004.6 |
| 20260503182051 | 68 | 311 | 7.0 | 17.0 | 0.00 | 0.00 | 0.00 | 39 | 1004.4 |
| 20260503181602 | 68 | 313 | 8.0 | 17.0 | 0.00 | 0.00 | 0.00 | 39 | 1004.6 |
| 20260503181051 | 67 | 360 | 7.0 | 17.0 | 0.00 | 0.00 | 0.00 | 36 | 1004.6 |
| 20260503180550 | 67 | 342 | 9.0 | 17.0 | 0.00 | 0.00 | 0.00 | 40 | 1004.7 |
| 20260503175551 | 67 | 341 | 10.0 | 17.0 | 0.00 | 0.00 | 0.00 | 38 | 1004.7 |
| 20260503175050 | 67 | 300 | 7.0 | 15.0 | 0.00 | 0.00 | 0.00 | 39 | 1004.7 |
| 20260503174610 | 67 | 294 | 8.0 | 15.0 | 0.00 | 0.00 | 0.00 | 40 | 1004.7 |
| 20260503174053 | 67 | 329 | 6.0 | 18.0 | 0.00 | 0.00 | 0.00 | 39 | 1004.7 |
| 20260503173550 | 67 | 347 | 9.0 | 18.0 | 0.00 | 0.00 | 0.00 | 41 | 1004.8 |
| 20260503173110 | 67 | 302 | 10.0 | 15.0 | 0.00 | 0.00 | 0.00 | 37 | 1004.8 |
| 20260503172549 | 67 | 335 | 10.0 | 15.0 | 0.00 | 0.00 | 0.00 | 40 | 1004.8 |
| 20260503172051 | 67 | 352 | 7.0 | 13.0 | 0.00 | 0.00 | 0.00 | 40 | 1004.8 |
| 20260503171603 | 67 | 329 | 8.0 | 19.0 | 0.00 | 0.00 | 0.00 | 42 | 1004.8 |
| 20260503171050 | 67 | 298 | 8.0 | 19.0 | 0.00 | 0.00 | 0.00 | 39 | 1004.8 |
| 20260503170550 | 67 | 331 | 8.0 | 19.0 | 0.00 | 0.00 | 0.00 | 42 | 1004.8 |
| 20260503170107 | 67 | 285 | 6.0 | 15.0 | 0.00 | 0.00 | 0.00 | 41 | 1004.7 |
| 20260503150550 | 61 | 315 | 7.0 | 14.0 | 0.00 | 0.00 | 0.00 | 52 | 1004.1 |
| 20260503131053 | 55 | 286 | 4.0 | 12.0 | 0.00 | 0.00 | 0.00 | 53 | 1003.5 |
| 20260503130550 | 55 | 300 | 5.0 | 12.0 | 0.00 | 0.00 | 0.00 | 54 | 1003.6 |
| 20260503110551 | 52 | 186 | 2.0 | 9.0 | 0.00 | 0.00 | 0.00 | 52 | 1002.5 |
| 20260503081554 | 55 | 163 | 2.0 | 8.0 | 0.00 | 0.00 | 0.00 | 47 | 1003.8 |
| 20260503081053 | 56 | 149 | 4.0 | 9.0 | 0.00 | 0.00 | 0.00 | 46 | 1003.9 |
| 20260503080553 | 56 | 157 | 4.0 | 13.0 | 0.00 | 0.00 | 0.00 | 46 | 1004.0 |